Cloud_Cover
0 0 0 0 2 75 2 100 98 27 0 50 98 17 0 2 1 0 0 0 0 0 0 0 0 0 0 0 0 0 0 0 0 5 0 0 0 65 88 6 25 98 0 29
0 0 0 0 2 0 0 52 61 7 0 3 72 3 0 0 73 1 0 0 0 0 0 0 0 0 0 0 0 0 0 0 0 5 2 0 70 97 100 87 100 100 88 100
0 0 0 0 0 0 0 13 85 23 0 0 78 40 0 0 6 84 4 0 0 0 0 0 0 0 0 0 0 0 0 0 0 0 2 8 3 1 98 100 100 100 100 100
0 0 0 0 0 0 4 4 39 46 4 2 0 93 7 0 4 32 5 5 0 0 0 0 0 0 0 0 0 0 0 0 0 0 0 0 0 48 31 100 100 100 100 100
0 0 0 0 0 0 36 78 2 0 4 6 32 15 43 5 0 4 43 5 4 0 0 0 0 0 0 0 0 0 0 0 0 0 0 0 0 0 56 73 93 100 100 100
0 0 0 0 0 0 0 0 0 0 0 2 26 59 67 49 54 57 51 2 4 23 2 0 0 0 0 0 0 0 0 0 0 0 0 0 0 0 15 0 0 0 1 15
0 0 0 0 0 0 0 0 0 1 2 12 100 87 100 12 51 88 72 70 12 4 5 0 0 0 0 0 0 0 0 0 0 0 0 0 0 0 0 0 0 0 0 0
0 0 0 0 0 0 0 0 2 92 98 98 4 2 12 6 1 0 1 4 19 5 94 0 0 0 0 0 0 0 0 0 0 0 0 0 0 0 0 0 0 0 0 0
0 0 0 0 0 0 0 0 0 11 5 100 59 4 44 2 3 0 0 0 1 5 1 99 10 0 0 0 0 0 0 0 0 0 0 0 0 0 0 0 0 0 0 0
0 2 0 0 0 0 0 0 0 0 4 36 56 2 4 5 1 0 0 0 0 16 42 48 47 100 100 100 100 100 45 0 0 0 0 0 0 0 0 0 0 0 0 0
0 0 5 4 0 0 0 0 0 1 3 99 83 100 42 82 49 5 0 0 1 0 89 100 100 100 100 100 100 100 100 1 0 65 100 100 84 0 0 64 51 6 6 0
0 0 2 5 0 0 0 0 0 0 3 1 91 79 5 100 25 24 3 0 0 0 85 100 100 100 100 100 100 100 100 100 0 100 100 100 100 98 97 12 97 98 100 1
0 0 0 1 72 1 0 0 1 0 1 8 1 73 0 4 98 54 5 1 1 1 2 60 97 100 100 100 100 100 100 64 43 100 100 100 100 100 100 100 3 3 5 1
0 0 0 0 2 41 3 1 0 5 5 9 30 84 3 10 100 42 9 5 0 5 0 1 88 100 100 100 100 100 96 10 68 68 100 100 100 100 100 100 1 0 3 1
0 0 0 0 2 21 5 5 0 5 4 92 98 90 100 9 98 50 2 0 4 0 1 0 18 46 100 100 100 100 100 87 0 0 7 10 99 100 89 12 0 0 0 0
2 0 0 0 0 5 100 79 5 5 5 97 32 100 5 15 55 9 5 5 5 0 0 0 0 0 80 100 100 99 1 0 0 0 0 2 4 60 0 0 0 0 0 0
8 5 5 4 5 25 45 74 96 24 5 5 20 91 5 5 87 65 5 5 26 5 5 3 67 14 0 0 0 0 9 5 1 0 0 0 0 0 0 0 0 0 0 0
5 5 5 5 26 3 45 69 24 100 100 100 100 20 3 49 100 100 63 75 1 5 37 5 13 13 4 4 37 100 99 80 5 0 0 0 0 0 0 0 0 0 0 0
28 5 5 5 9 51 7 14 82 8 44 80 82 18 96 100 100 100 96 14 10 5 5 5 5 5 5 35 100 100 88 7 5 0 0 0 0 0 0 2 4 0 0 0
88 7 19 51 20 8 99 98 82 33 4 76 50 19 100 100 100 58 5 5 5 5 5 5 5 5 33 100 100 73 75 8 1 0 0 0 0 0 4 0 0 0 0 0
100 100 98 95 16 9 7 8 97 100 36 81 93 100 100 100 98 5 5 5 5 5 5 5 17 91 100 100 63 14 6 5 4 2 0 2 5 3 0 0 0 0 0 0
33 100 100 100 100 100 97 71 87 100 100 100 100 72 13 100 11 5 67 25 5 5 5 5 58 100 51 98 66 11 5 5 4 0 31 5 5 0 0 0 0 0 0 0
4 5 21 64 100 100 100 100 100 100 31 74 68 4 5 0 3 5 5 5 40 79 56 99 41 15 80 55 5 30 65 16 0 4 5 5 0 0 0 0 0 0 0 22
62 49 18 5 5 5 44 29 52 35 28 96 78 5 5 5 5 5 5 9 52 89 90 30 74 94 24 19 28 4 45 15 5 10 3 0 0 0 0 0 64 86 0 0
44 56 98 33 4 2 3 5 5 47 60 33 8 4 3 5 5 6 43 40 53 34 79 100 81 6 7 4 1 48 16 10 100 100 36 0 0 0 4 0 0 8 14 100
100 36 58 8 42 100 22 6 5 8 67 10 5 7 5 5 20 51 97 100 100 100 40 5 5 5 3 0 10 16 8 49 100 16 100 92 86 17 91 83 0 1 22 50